AISTECHSAT 2 (43768 NORAD) Tracking and Keplerian Element Data

This shows tracking and keplerian element data for the satellite.

Feedback or suggestion? Click here.




ElementValue
Catalog43768
NameAISTECHSAT 2
Epoch Orbit405
Epoch Day1.74379608
Epoch Year2019
RAAN75.5877
Inclination97.7645
Eccentricity0.0012182
Argument of Perigee157.7943
Mean Anonmoly202.3807
Mean Motion14.94426371
Decay Rate5.48E-06
L11 43768U 18099L 19001.74379608 .00000548 00000-0 56164-4 0 9993
L22 43768 97.7645 75.5877 0012182 157.7943 202.3807 14.94426371 4059

Live tracking and technical data element details for AISTECHSAT 2 (NORAD 43768). AISTECHSAT 2 can be tracked NOW for your location showing map with azimuth and elevation plus other details from your city location.

Track the satellite on the map from your city or location and see movement details for azimuth, elevation, latitude, longitude, range, height, and movement on the map or in text.







IsCatalogInMostPopularTable: catalog: 43768, numindb: 21
Update: records affected: 1



GetName: 43768 AISTECHSAT 2

Hit Count: updated at: Wed, 23 Jan 2019 03:09:12 GMT